[[{"header":{"parameterUnit":"m.s-1","parameterCategory":1,"la1":30.2991,"la2":30.254,"lo1":-89.0895,"lo2":-89.0444,"dy":0.0017,"dx":0.0017,"nx":28,"ny":28,"refTime":"2024-10-15T03:00:00:Z","depth":0,"parameterNumber":2,"parameterNumberName":"U-component_of_WINDS"},"data":[0,0,0,0,0,0,0,0,0,0,0,0,0,0,0,0,0,0,0,0,0,0,0,0,0,0,0,0,0,0,0,0,0,0,0,0,0,0,0,0,0,0,0,0,0,0,0,0,0,0,0,0,0,0,0,0,0,0,-3.949,-3.949,0,-3.9559,-3.956,-3.9561,-3.9472,-3.9469,-3.9466,-3.9463,-3.9533,-3.9537,-3.9542,0,0,0,0,0,0,0,0,0,0,0,0,0,-3.9277,-3.9281,-3.9489,-3.949,-3.9491,-3.9559,-3.956,-3.9561,-3.9473,-3.9469,-3.9465,-3.9461,-3.9531,-3.9537,-3.9543,0,0,0,0,0,0,0,0,0,0,0,0,0,-3.936,-3.9282,-3.9489,-3.9455,-3.9453,-3.9559,-3.956,-3.9561,-3.9473,-3.9469,-3.9464,-3.9459,-3.9529,-3.9536,-3.9543,-3.9686,0,0,-3.9566,-3.9569,0,0,0,0,0,0,0,0,-3.9355,-3.9368,-3.9459,-3.9458,-3.9455,-3.9502,-3.9511,-3.9603,-3.9475,-3.9466,-3.9462,-3.9457,-3.9526,-3.9533,-3.9557,-3.9689,-3.9692,-3.9566,-3.9571,-3.9574,-3.9576,0,0,0,0,0,0,0,-3.935,-3.9364,-3.9517,-3.9461,-3.9458,-3.9436,-3.9442,-3.9528,-3.9522,-3.9466,-3.946,-3.9469,-3.9524,-3.955,-3.9558,-3.9693,-3.9566,-3.9573,-3.9577,-3.958,-3.9944,-3.9949,0,0,0,0,0,0,-3.9348,-3.936,-3.9515,-3.9519,-3.9392,-3.9443,-3.9451,-3.9492,-3.9521,-3.9521,-3.9473,-3.9465,-3.954,-3.955,-3.956,-3.9729,-3.9574,-3.9581,-3.9585,-3.9939,-3.9945,-3.9951,0,0,0,0,0,0,-3.9344,-3.9363,-3.9512,-3.9438,-3.9455,-3.9452,-3.9499,-3.9496,-3.9522,-3.9527,-3.9525,-3.9502,-3.9537,-3.955,-3.9655,-3.973,-3.9584,-3.9591,-3.9933,-3.9941,-3.9948,-4.0068,0,0,0,0,0,0,-3.9338,-3.9362,-3.9417,-3.944,-3.946,-3.9607,-3.9504,-3.9501,-3.9535,-3.9525,-3.9553,-3.9552,-3.9534,-3.9645,-3.9663,-3.9738,-3.9596,-3.9926,-3.9936,-3.9946,-4.0057,-4.0079,-4.0097,0,0,0,0,0,-3.9331,-3.9448,-3.942,-3.9439,-3.9528,-3.9612,-3.9623,-3.96,-3.9542,-3.9596,-3.9599,-3.9552,-3.9719,-3.9656,-3.9675,-3.9754,-3.9921,-3.9933,-3.9945,-4.0048,-4.0075,-4.0097,0,0,0,0,0,0,-3.9433,-3.945,-3.942,-3.9548,-3.9579,-3.9596,-3.9665,-3.9628,-3.9676,-3.9665,-3.9633,-3.964,-3.9752,-3.9763,-3.9693,-3.9893,-3.981,-3.9827,-3.9882,-3.9907,-3.9927,-3.9923,-3.9603,0,0,0,0,0,-3.9471,-3.9538,-3.9548,-3.966,-3.9677,-3.9669,-3.9704,-3.9683,-3.9714,-3.9727,-3.9737,-3.9769,-3.9828,-3.9868,-3.9923,-4.0057,-4.0062,-4.0121,-4.0141,-4.0157,-4.0172,-4.0244,-4.027,-3.999,-3.999,-3.999,0,0,-3.9549,-3.9566,-3.961,-3.9681,-3.9703,-3.9772,-3.968,-3.9758,-3.9809,-3.9738,-3.9839,-3.9847,-3.988,-4.0001,-4.0054,-4.0013,-4.025,-4.0172,-4.0186,-4.0192,-4.0259,-4.0285,-4.0309,-3.9998,-3.9997,-3.9995,0,0,-3.9727,-3.9747,-3.9842,-3.9866,-3.99,-3.9893,-3.9916,-3.9939,-3.9942,-4.0042,-3.9991,-4.005,-4.0153,-4.0178,-4.0205,-4.039,-4.0349,-4.0409,-4.0515,-4.0585,-4.0607,-4.0626,-4.0693,-4.0718,-4.0423,-4.0424,-4.0424,0,-3.982,-3.9923,-3.9895,-3.9977,-4.0009,-3.9948,-4.0044,-4.0067,-4.0118,-4.0141,-4.0094,-4.0222,-4.0239,-4.0365,-4.041,-4.0433,-4.0458,-4.0407,-4.0606,-4.0625,-4.0643,-4.0706,-4.0732,-4.0431,-4.043,-4.0429,-4.0429,0,-4.0036,-4.0108,-4.018,-4.0231,-4.0271,-4.0359,-4.0344,-4.0387,-4.0362,-4.036,-4.0462,-4.0481,-4.0539,-4.0566,-4.0543,-4.0689,-4.0662,-4.0611,-4.0528,-4.0678,-4.0736,-4.076,-4.0441,-4.0439,-4.0436,-4.0435,0,0,-4.0283,-4.0316,-4.0343,-4.0365,-4.0397,-4.0452,-4.0536,-4.0593,-4.0631,-4.0667,-4.0737,-4.0825,-4.0778,-4.0808,-4.0786,-4.0847,-4.0994,-4.0789,-4.0789,-4.0827,-4.1155,-4.1195,-4.1223,-4.0965,-4.097,-4.0973,-4.1153,0,-4.0462,-4.0609,-4.0586,-4.0728,-4.0794,-4.0736,-4.0809,-4.0837,-4.0837,-4.0892,-4.089,-4.0954,-4.0886,-4.0904,-4.0962,-4.0964,-4.1059,-4.095,-4.103,-4.1033,-4.1025,-4.1254,-4.1296,-4.1465,-4.1176,-4.118,-4.1182,0,-4.0691,-4.0736,-4.0885,-4.0907,-4.0933,-4.1,-4.1049,-4.1103,-4.1132,-4.1127,-4.116,-4.1126,-4.1209,-4.1124,-4.1237,-4.1164,-4.1194,-4.12,-4.1205,-4.1213,-4.1118,-4.1269,-4.1518,-4.1544,-4.1218,-4.1215,-4.1213,0,-4.0858,-4.0955,-4.1057,-4.1077,-4.1104,-4.1152,-4.1166,-4.119,-4.1225,-4.1267,-4.129,-4.1341,-4.137,-4.141,-4.139,-4.1329,-4.1508,-4.142,-4.1506,-4.1507,-4.1548,-4.1546,-4.1807,-4.1566,-4.1565,-4.1565,-4.1564,0,-4.1061,-4.1155,-4.1132,-4.1195,-4.1298,-4.1268,-4.1371,-4.1377,-4.1398,-4.1461,-4.1412,-4.1472,-4.1442,-4.1499,-4.1484,-4.158,-4.1593,-4.1591,-4.1587,-4.1597,-4.1597,-4.1618,-4.1606,-4.1572,-4.157,-4.1569,-4.1568,0,-4.1266,-4.1254,-4.1361,-4.1378,-4.1384,-4.1459,-4.1472,-4.1531,-4.1525,-4.1605,-4.1621,-4.1614,-4.1678,-4.1662,-4.1732,-4.1721,-4.1844,-4.1823,-4.1835,-4.183,-4.1917,-4.191,-4.2202,-4.2239,-4.1973,-4.1975,-4.1977,0,-4.1397,-4.1468,-4.1492,-4.153,-4.1548,-4.161,-4.1646,-4.1619,-4.1657,-4.1695,-4.1749,-4.1808,-4.1855,-4.196,-4.196,-4.2012,-4.1994,-4.2092,-4.2001,-4.2009,-4.1996,-4.1993,-4.2,-4.2111,-4.2114,-4.2117,-4.2119,0,-4.1632,-4.1622,-4.1676,-4.1728,-4.1772,-4.1811,-4.1845,-4.1879,-4.1854,-4.19,-4.1965,-4.2001,-4.2072,-4.2132,-4.218,-4.2192,-4.2152,-4.2147,-4.217,-4.2182,-4.2186,-4.2186,-4.1885,-4.2141,-4.2139,-4.2137,-4.2136,-4.2135,-4.1805,-4.1865,-4.1891,-4.1952,-4.1975,-4.2008,-4.2064,-4.2065,-4.2119,-4.2176,-4.2155,-4.223,-4.2255,-4.2316,-4.2334,-4.2391,-4.2354,-4.2387,-4.2395,-4.2404,-4.2415,-4.2175,-4.2399,-4.2399,-4.2398,-4.2398,-4.2397,0,-4.2038,-4.2052,-4.2108,-4.2158,-4.2206,-4.2162,-4.2198,-4.224,-4.2307,-4.2334,-4.2381,-4.2455,-4.2512,-4.2516,-4.257,-4.2615,-4.2597,-4.263,-4.2627,-4.263,-4.2445,-4.2421,-4.2643,-4.2643,-4.2643,-4.2643,-4.2643,-4.2643,-4.2166,-4.2265,-4.2258,-4.2368,-4.238,-4.2454,-4.2478,-4.2507,-4.2529,-4.2614,-4.2662,-4.2664,-4.2681,-4.2735,-4.2786,-4.2785,-4.2807,-4.2847,-4.284,-4.2668,-4.2643,-4.262,-4.2597,-4.2852,-4.2853,-4.302,-4.3022,-4.3023]},{"header":{"parameterUnit":"m.s-1","parameterCategory":1,"la1":30.2991,"la2":30.254,"lo1":-89.0895,"lo2":-89.0444,"dy":0.0017,"dx":0.0017,"nx":28,"ny":28,"refTime":"2024-10-15T03:00:00:Z","depth":0,"parameterNumber":3,"parameterNumberName":"V-component_of_WINDS"},"data":[0,0,0,0,0,0,0,0,0,0,0,0,0,0,0,0,0,0,0,0,0,0,0,0,0,0,0,0,0,0,0,0,0,0,0,0,0,0,0,0,0,0,0,0,0,0,0,0,0,0,0,0,0,0,0,0,0,0,-9.5118,-9.5119,0,-9.5227,-9.5228,-9.5229,-9.5111,-9.5107,-9.5102,-9.5098,-9.5202,-9.5208,-9.5215,0,0,0,0,0,0,0,0,0,0,0,0,0,-9.48,-9.4806,-9.5118,-9.5119,-9.512,-9.5226,-9.5228,-9.5229,-9.5112,-9.5106,-9.5101,-9.5096,-9.5199,-9.5207,-9.5216,0,0,0,0,0,0,0,0,0,0,0,0,0,-9.4926,-9.4808,-9.5117,-9.5075,-9.5072,-9.5226,-9.5228,-9.523,-9.5113,-9.5106,-9.51,-9.5093,-9.5197,-9.5207,-9.5217,-9.5416,0,0,-9.5249,-9.5253,0,0,0,0,0,0,0,0,-9.4919,-9.4938,-9.508,-9.5078,-9.5075,-9.5149,-9.5153,-9.5292,-9.5115,-9.5097,-9.5098,-9.509,-9.5189,-9.5199,-9.5234,-9.5421,-9.5425,-9.525,-9.5256,-9.526,-9.5263,0,0,0,0,0,0,0,-9.491,-9.4932,-9.516,-9.5082,-9.5079,-9.5047,-9.5058,-9.5179,-9.5179,-9.5098,-9.509,-9.5105,-9.5186,-9.5225,-9.5236,-9.5427,-9.5249,-9.5259,-9.5265,-9.5269,-9.5779,-9.5786,0,0,0,0,0,0,-9.4908,-9.4926,-9.5157,-9.5164,-9.4979,-9.5059,-9.507,-9.5132,-9.5178,-9.5178,-9.5111,-9.5099,-9.521,-9.5224,-9.5239,-9.5474,-9.526,-9.527,-9.5276,-9.5772,-9.5781,-9.5789,0,0,0,0,0,0,-9.4901,-9.4929,-9.5152,-9.5043,-9.5069,-9.5071,-9.5141,-9.5137,-9.5176,-9.5187,-9.5185,-9.5151,-9.5205,-9.5224,-9.5373,-9.5476,-9.5275,-9.5284,-9.5764,-9.5775,-9.5785,-9.5946,0,0,0,0,0,0,-9.4893,-9.4928,-9.5006,-9.5045,-9.5075,-9.5288,-9.5147,-9.5144,-9.5195,-9.5181,-9.5224,-9.5225,-9.5202,-9.5358,-9.5383,-9.5487,-9.5292,-9.5754,-9.5769,-9.5782,-9.5932,-9.5962,-9.5987,0,0,0,0,0,-9.4882,-9.5045,-9.501,-9.5039,-9.5173,-9.5294,-9.531,-9.5283,-9.5204,-9.528,-9.5287,-9.5223,-9.5461,-9.5374,-9.5402,-9.551,-9.5748,-9.5765,-9.5781,-9.592,-9.5956,-9.5986,0,0,0,0,0,0,-9.5014,-9.505,-9.5011,-9.5193,-9.5242,-9.5274,-9.537,-9.5322,-9.5392,-9.5376,-9.5336,-9.5347,-9.5505,-9.5522,-9.5425,-9.5704,-9.5591,-9.5614,-9.5687,-9.5722,-9.5749,-9.5741,-9.5301,0,0,0,0,0,-9.5065,-9.5164,-9.5188,-9.5346,-9.5372,-9.5368,-9.5419,-9.5394,-9.5442,-9.5461,-9.5479,-9.5525,-9.561,-9.5667,-9.5745,-9.5934,-9.594,-9.6021,-9.6049,-9.6071,-9.6091,-9.6191,-9.6227,-9.5843,-9.5843,-9.5843,0,0,-9.517,-9.5202,-9.5266,-9.5373,-9.5408,-9.5508,-9.5385,-9.5496,-9.5569,-9.5477,-9.5619,-9.5634,-9.5682,-9.5852,-9.5927,-9.5871,-9.6199,-9.6092,-9.611,-9.6118,-9.6211,-9.6248,-9.628,-9.5854,-9.5852,-9.585,0,0,-9.5413,-9.5448,-9.5583,-9.5621,-9.5676,-9.5672,-9.5704,-9.5744,-9.5751,-9.5894,-9.5826,-9.591,-9.6058,-9.6096,-9.6134,-9.6391,-9.6334,-9.6417,-9.6561,-9.6658,-9.6689,-9.6715,-9.6806,-9.6839,-9.6437,-9.6438,-9.6438,0,-9.5537,-9.5688,-9.5658,-9.5775,-9.5823,-9.5746,-9.5881,-9.5918,-9.5995,-9.6029,-9.5965,-9.6149,-9.6176,-9.6353,-9.6416,-9.645,-9.6483,-9.6412,-9.6687,-9.6714,-9.6738,-9.6824,-9.6858,-9.6447,-9.6446,-9.6445,-9.6444,0,-9.5835,-9.5941,-9.6043,-9.6123,-9.6182,-9.6307,-9.6294,-9.6357,-9.6327,-9.6328,-9.6473,-9.6503,-9.6586,-9.6626,-9.6597,-9.6798,-9.6762,-9.6694,-9.6579,-9.6785,-9.6865,-9.6897,-9.6461,-9.6458,-9.6455,-9.6453,0,0,-9.6165,-9.6227,-9.6265,-9.63,-9.6355,-9.6434,-9.6555,-9.6639,-9.6693,-9.6749,-9.6847,-9.6974,-9.6911,-9.6955,-9.6928,-9.7014,-9.7214,-9.6935,-9.6935,-9.6985,-9.7437,-9.7487,-9.7526,-9.7177,-9.7183,-9.7188,-9.7432,0,-9.6409,-9.6621,-9.6598,-9.6799,-9.6895,-9.6823,-9.6927,-9.6971,-9.6976,-9.7055,-9.7058,-9.7149,-9.706,-9.7085,-9.7167,-9.7173,-9.7304,-9.7155,-9.7266,-9.727,-9.7256,-9.7568,-9.7622,-9.7851,-9.7463,-9.7469,-9.7473,0,-9.6722,-9.6791,-9.7003,-9.7043,-9.7082,-9.7177,-9.7252,-9.733,-9.7377,-9.7373,-9.7423,-9.7381,-9.7499,-9.7383,-9.7544,-9.7443,-9.7486,-9.7496,-9.7504,-9.7513,-9.7384,-9.7584,-9.7924,-9.7958,-9.7522,-9.7518,-9.7514,0,-9.694,-9.7086,-9.7232,-9.7263,-9.7314,-9.7382,-9.7406,-9.7446,-9.7498,-9.7562,-9.7595,-9.7671,-9.7713,-9.7771,-9.775,-9.7668,-9.7915,-9.7797,-9.7913,-9.7914,-9.7968,-9.7965,-9.8319,-9.7998,-9.7998,-9.7997,-9.7996,0,-9.7214,-9.7346,-9.733,-9.742,-9.7565,-9.7535,-9.7678,-9.7692,-9.7729,-9.7818,-9.7759,-9.7843,-9.7811,-9.7892,-9.7876,-9.801,-9.8029,-9.8028,-9.8022,-9.8034,-9.8034,-9.8061,-9.8044,-9.8006,-9.8004,-9.8002,-9.8001,0,-9.7482,-9.7477,-9.7631,-9.7667,-9.7679,-9.7784,-9.7813,-9.7896,-9.7895,-9.8008,-9.8033,-9.8032,-9.8124,-9.8109,-9.8211,-9.82,-9.8368,-9.8343,-9.8353,-9.8347,-9.8464,-9.8453,-9.8847,-9.8896,-9.8545,-9.8548,-9.8551,0,-9.7658,-9.7758,-9.7805,-9.7862,-9.7891,-9.7983,-9.8036,-9.801,-9.8067,-9.8128,-9.8203,-9.8291,-9.8359,-9.851,-9.8516,-9.8593,-9.8568,-9.8701,-9.8579,-9.8587,-9.8569,-9.8563,-9.8572,-9.8725,-9.8729,-9.8732,-9.8735,0,-9.7969,-9.7961,-9.8042,-9.8122,-9.8188,-9.8249,-9.8303,-9.8352,-9.833,-9.8397,-9.8493,-9.8546,-9.8651,-9.8738,-9.881,-9.883,-9.8779,-9.8774,-9.8804,-9.8816,-9.8818,-9.8818,-9.8418,-9.8764,-9.8761,-9.8759,-9.8758,-9.8757,-9.8195,-9.8281,-9.8328,-9.8419,-9.8458,-9.851,-9.859,-9.86,-9.868,-9.8765,-9.8744,-9.8852,-9.8893,-9.8986,-9.9014,-9.9096,-9.9046,-9.9091,-9.9102,-9.9114,-9.9127,-9.8806,-9.9109,-9.9108,-9.9107,-9.9106,-9.9106,0,-9.8502,-9.8529,-9.8614,-9.8694,-9.8765,-9.8713,-9.877,-9.8833,-9.8929,-9.8974,-9.9044,-9.9152,-9.9236,-9.9249,-9.9328,-9.9391,-9.9369,-9.9412,-9.9407,-9.9412,-9.9168,-9.9133,-9.9429,-9.9429,-9.9429,-9.9429,-9.9428,-9.9428,-9.8671,-9.8813,-9.8811,-9.8971,-9.8995,-9.9103,-9.914,-9.9187,-9.9223,-9.9348,-9.9418,-9.9427,-9.9459,-9.954,-9.9613,-9.9615,-9.9646,-9.9699,-9.9691,-9.9462,-9.943,-9.9399,-9.9366,-9.9706,-9.9706,-9.9928,-9.993,-9.9932]}]]